Regional Weather Roundup
Issued by NWS

Home | Current Version | Previous Version | Graphics & Text | Print | Product List | Glossary On
Versions: 1 2 3 4 5 6 7 8 9 10 11 12 13 14 15 16 17 18 19 20 21 22 23 24 25 26 27 28 29 30 31 32 33 34 35 36 37 38 39 40 41 42 43 44 45 46 47 48 49 50
000
ASUS44 KMEG 220510
RWRTN
TENNESSEE HOURLY STATE WEATHER ROUNDUP
NATIONAL WEATHER SERVICE MEMPHIS TN
1200 AM CDT MON SEP 22 2014

TNZ002-004-019-021-049-052-054-088>092-220600-
WEST TENNESSEE

CITY           SKY/WX    TMP DP  RH WIND       PRES   REMARKS
MEMPHIS INTL   CLEAR     70  50  49 N9        30.09R
NWS MEMPHIS      N/A     65 N/A N/A MISG        N/A
JACKSON        CLEAR     64  51  62 N7        30.09R
DYERSBURG      CLEAR     64  46  52 N8        30.11S
UNION CITY     CLEAR     55  52  88 NW5       30.09S
PARIS          CLEAR     57  48  72 N7        30.10S
HUNTINGDON     CLEAR     62  48  60 N3        30.09S
LEXINGTON      CLEAR     61  52  72 NE5       30.07S
SAVANNAH       CLEAR     63  54  72 N5        30.07S
$$

TNZ008-025-027-028-033-062-065-066-220600-
NORTH MIDDLE TENNESSEE

CITY           SKY/WX    TMP DP  RH WIND       PRES   REMARKS
NASHVILLE      CLEAR     66  50  56 N10       30.07R
DICKSON        CLEAR     61  48  63 N5        30.08R
PORTLAND       CLEAR     61  50  67 N7        30.07R
CLARKSVILLE    CLEAR     60  51  72 N7        30.09R
LEBANON        CLEAR     56  51  83 CALM      30.05R
SMYRNA         CLEAR     62  52  70 N9        30.07R
MURFREESBORO   CLEAR     62  50  65 CALM      30.05R
COOKEVILLE     CLEAR     52  50  93 CALM      30.05R
LIVINGSTON     CLEAR     62  48  60 N7        30.06R
GALLATIN       CLEAR     65  52  62 N10       30.07R
CROSSVILLE     CLEAR     58  50  75 CALM      30.07R
$$

TNZ061-075-076-078-094-096-097-220600-
SOUTH MIDDLE TENNESSEE

CITY           SKY/WX    TMP DP  RH WIND       PRES   REMARKS
LEWISBURG      CLEAR     62  52  70 CALM      30.06R
FAYETTEVILLE   CLEAR     66  48  52 N9        30.06S
TULLAHOMA      CLEAR     57  52  82 N3        30.08R
WINCHESTER     CLOUDY    66  54  63 CALM      30.06S
MCMINNVILLE    PTCLDY    57  55  94 CALM      30.06S
COLUMBIA       CLEAR     61  54  77 CALM      30.06R
SHELBYVILLE    CLEAR     63  55  77 CALM      30.07R
$$

TNZ017-018-042-046-047-220600-
NORTHEAST TENNESSEE

CITY           SKY/WX    TMP DP  RH WIND       PRES   REMARKS
TRI CITIES     PTCLDY    61  50  67 N3        30.02S
ELIZABETHTON   CLEAR     55  54  94 CALM      30.02S
$$

TNZ012-013-036-069-073-074-220600-
CENTRAL EAST TENNESSEE

CITY           SKY/WX    TMP DP  RH WIND       PRES   REMARKS
KNOXVILLE      PTCLDY    66  51  58 N5        30.02R
OAK RIDGE      CLEAR     63  52  67 CALM      30.04R
GATLINBURG     PTCLDY    64  55  72 CALM      30.02R
MORRISTOWN     CLEAR     63  52  67 NW5       30.03S
$$

TNZ083-085-099-220600-
SOUTHEAST TENNESSEE

CITY           SKY/WX    TMP DP  RH WIND       PRES   REMARKS
CHATTANOOGA    CLOUDY    72  51  47 N7        30.03R
$$

SKY/WX REPORTED AS FAIR MEANS FEW OR NO CLOUDS BELOW
12 THOUSAND FEET.



USA.gov is the U.S. government's official web portal to all federal, state and local government web resources and services.